YAHSAT 1A

Last updated on Tue Sep 22 2026 00:03:12 GMT+0000 (Coordinated Universal Time)

1 37393U 11016B 26264.57079772 .00000097 00000+0 00000+0 0 9992 2 37393 0.0140 172.2330 0001918 349.9969 96.2208 1.00269900 43379
UTC large
Height (km)
Speed (km/s)
/
Latitude / Longitude
Inclination (degrees)
Orbital Period (minutes)
Azimuth
Elevation
Range (km)
Doppler Factor

Next 0 passes for location: London (51.5072 / 0.1276)

No passes found over London.
YAHSAT 1A